,,PressureMeas_1m,,PRMeasQMR101_1,,RHStat155_1m_1,,SRMeasQMS101R_1m,,TAStat155_1m_1,,GenWind_1,,GenWind_1,
2018-08-12, 00:00:07,VALID,918.885,VALID,0.0,VALID,90.066,VALID,-0.005,VALID,19.76,INVALID,360.0,VALID,0.0,
2018-08-12, 00:01:07,VALID,918.878,VALID,0.0,VALID,91.169,VALID,-0.003,VALID,19.569,INVALID,360.0,VALID,0.0,
2018-08-12, 00:02:07,VALID,918.873,VALID,0.0,VALID,91.807,VALID,-0.011,VALID,19.441,INVALID,360.0,VALID,0.0,
2018-08-12, 00:03:07,VALID,918.867,VALID,0.0,VALID,92.162,VALID,-0.006,VALID,19.346,INVALID,360.0,VALID,0.0,
2018-08-12, 00:04:07,VALID,918.86,VALID,0.0,VALID,92.185,VALID,-0.01,VALID,19.224,INVALID,360.0,VALID,0.0,
2018-08-12, 00:05:07,VALID,918.847,VALID,0.0,VALID,92.524,VALID,-0.007,VALID,19.111,INVALID,360.0,VALID,0.0,
2018-08-12, 00:06:07,VALID,918.838,VALID,0.0,VALID,93.838,VALID,-0.019,VALID,19.092,INVALID,360.0,VALID,0.0,
2018-08-12, 00:07:07,VALID,918.834,VALID,0.0,VALID,93.549,VALID,0.001,VALID,19.041,INVALID,360.0,VALID,0.0,
2018-08-12, 00:08:07,VALID,918.836,VALID,0.0,VALID,93.487,VALID,0.002,VALID,19.002,INVALID,360.0,VALID,0.0,
2018-08-12, 00:09:07,VALID,918.82,VALID,0.0,VALID,93.616,VALID,-0.002,VALID,19.005,INVALID,360.0,VALID,0.0,
2018-08-12, 00:10:07,VALID,918.812,VALID,0.0,VALID,93.889,VALID,0.005,VALID,19.048,INVALID,360.0,VALID,0.0,
2018-08-12, 00:11:07,VALID,918.798,VALID,0.0,VALID,93.664,VALID,-0.005,VALID,19.107,INVALID,360.0,VALID,0.0,
2018-08-12, 00:12:07,VALID,918.784,VALID,0.0,VALID,94.048,VALID,-0.015,VALID,19.202,INVALID,360.0,VALID,0.0,
2018-08-12, 00:13:07,VALID,918.785,VALID,0.0,VALID,94.233,VALID,-0.001,VALID,19.297,INVALID,360.0,VALID,0.0,
2018-08-12, 00:14:07,VALID,918.775,VALID,0.0,VALID,94.298,VALID,-0.002,VALID,19.373,INVALID,360.0,VALID,0.0,
2018-08-12, 00:15:07,VALID,918.762,VALID,0.0,VALID,94.299,VALID,-0.008,VALID,19.437,INVALID,360.0,VALID,0.0,
2018-08-12, 00:16:07,VALID,918.755,VALID,0.0,VALID,94.243,VALID,-0.002,VALID,19.517,INVALID,360.0,VALID,0.0,
2018-08-12, 00:17:07,VALID,918.768,VALID,0.0,VALID,91.72,VALID,-0.017,VALID,19.423,INVALID,360.0,VALID,0.0,
2018-08-12, 00:18:07,VALID,918.777,VALID,0.0,VALID,92.591,VALID,-0.011,VALID,19.343,INVALID,360.0,VALID,0.0,
2018-08-12, 00:19:07,VALID,918.776,VALID,0.0,VALID,93.176,VALID,0.002,VALID,19.344,INVALID,360.0,VALID,0.0,
2018-08-12, 00:20:07,VALID,918.776,VALID,0.0,VALID,93.458,VALID,-0.028,VALID,19.319,INVALID,360.0,VALID,0.0,
2018-08-12, 00:21:07,VALID,918.787,VALID,0.0,VALID,94.091,VALID,-0.009,VALID,19.343,INVALID,360.0,VALID,0.0,
2018-08-12, 00:22:07,VALID,918.792,VALID,0.0,VALID,93.371,VALID,-0.01,VALID,19.342,INVALID,360.0,VALID,0.0,
2018-08-12, 00:23:07,VALID,918.781,VALID,0.0,VALID,92.96,VALID,0.006,VALID,19.283,INVALID,360.0,VALID,0.0,
2018-08-12, 00:24:07,VALID,918.764,VALID,0.0,VALID,93.262,VALID,0.003,VALID,19.265,INVALID,360.0,VALID,0.0,
2018-08-12, 00:25:07,VALID,918.724,VALID,0.0,VALID,93.629,VALID,-0.002,VALID,19.301,INVALID,360.0,VALID,0.0,
2018-08-12, 00:26:07,VALID,918.714,VALID,0.0,VALID,93.614,VALID,-0.009,VALID,19.295,INVALID,360.0,VALID,0.0,
2018-08-12, 00:27:07,VALID,918.705,VALID,0.0,VALID,93.406,VALID,-0.006,VALID,19.217,INVALID,360.0,VALID,0.0,
2018-08-12, 00:28:07,VALID,918.71,VALID,0.0,VALID,93.408,VALID,0.003,VALID,19.139,INVALID,360.0,VALID,0.0,
2018-08-12, 00:29:07,VALID,918.708,VALID,0.0,VALID,93.586,VALID,-0.002,VALID,19.081,INVALID,360.0,VALID,0.0,
2018-08-12, 00:30:07,VALID,918.687,VALID,0.0,VALID,93.407,VALID,0.002,VALID,18.995,INVALID,360.0,VALID,0.0,
2018-08-12, 00:31:07,VALID,918.675,VALID,0.0,VALID,93.844,VALID,0.02,VALID,18.938,INVALID,360.0,VALID,0.0,
2018-08-12, 00:32:07,VALID,918.672,VALID,0.0,VALID,92.816,VALID,-0.004,VALID,18.818,INVALID,360.0,VALID,0.0,
2018-08-12, 00:33:07,VALID,918.663,VALID,0.0,VALID,93.005,VALID,-0.005,VALID,18.756,INVALID,360.0,VALID,0.0,
2018-08-12, 00:34:07,VALID,918.648,VALID,0.0,VALID,93.997,VALID,0.017,VALID,18.763,INVALID,360.0,VALID,0.0,
2018-08-12, 00:35:07,VALID,918.634,VALID,0.0,VALID,94.198,VALID,0.002,VALID,18.757,INVALID,360.0,VALID,0.0,
2018-08-12, 00:36:07,VALID,918.652,VALID,0.0,VALID,92.309,VALID,-0.01,VALID,18.619,INVALID,360.0,VALID,0.0,
2018-08-12, 00:37:07,VALID,918.663,VALID,0.0,VALID,93.587,VALID,-0.043,VALID,18.609,INVALID,360.0,VALID,0.0,
2018-08-12, 00:38:07,VALID,918.646,VALID,0.0,VALID,95.433,VALID,-0.038,VALID,18.737,INVALID,360.0,VALID,0.0,
2018-08-12, 00:39:07,VALID,918.64,VALID,0.0,VALID,95.362,VALID,-0.033,VALID,18.747,INVALID,360.0,VALID,0.0,
2018-08-12, 00:40:07,VALID,918.614,VALID,0.0,VALID,94.911,VALID,-0.021,VALID,18.692,INVALID,360.0,VALID,0.0,
2018-08-12, 00:41:07,VALID,918.579,VALID,0.0,VALID,94.767,VALID,-0.042,VALID,18.662,INVALID,360.0,VALID,0.0,
2018-08-12, 00:42:07,VALID,918.553,VALID,0.0,VALID,95.285,VALID,-0.036,VALID,18.636,INVALID,360.0,VALID,0.0,
2018-08-12, 00:43:07,VALID,918.527,VALID,0.0,VALID,94.788,VALID,-0.033,VALID,18.569,INVALID,360.0,VALID,0.0,
2018-08-12, 00:44:07,VALID,918.519,VALID,0.0,VALID,95.106,VALID,-0.026,VALID,18.543,INVALID,360.0,VALID,0.0,
2018-08-12, 00:45:07,VALID,918.504,VALID,0.0,VALID,95.323,VALID,-0.016,VALID,18.516,INVALID,360.0,VALID,0.0,
2018-08-12, 00:46:07,VALID,918.481,VALID,0.0,VALID,95.753,VALID,-0.041,VALID,18.527,INVALID,360.0,VALID,0.0,
2018-08-12, 00:47:07,VALID,918.45,VALID,0.0,VALID,95.984,VALID,-0.025,VALID,18.532,INVALID,360.0,VALID,0.0,
2018-08-12, 00:48:07,VALID,918.423,VALID,0.0,VALID,96.09,VALID,-0.046,VALID,18.519,INVALID,360.0,VALID,0.0,
2018-08-12, 00:49:07,VALID,918.372,VALID,0.0,VALID,96.091,VALID,-0.034,VALID,18.483,INVALID,360.0,VALID,0.0,
2018-08-12, 00:50:06,VALID,918.34,VALID,0.0,VALID,95.67,VALID,-0.038,VALID,18.419,INVALID,360.0,VALID,0.0,
2018-08-12, 00:51:06,VALID,918.316,VALID,0.0,VALID,95.381,VALID,-0.014,VALID,18.376,INVALID,360.0,VALID,0.0,
2018-08-12, 00:52:06,VALID,918.323,VALID,0.0,VALID,95.37,VALID,0.002,VALID,18.354,INVALID,360.0,VALID,0.0,
2018-08-12, 00:53:06,VALID,918.318,VALID,0.0,VALID,95.354,VALID,-0.008,VALID,18.312,INVALID,360.0,VALID,0.0,
2018-08-12, 00:54:06,VALID,918.329,VALID,0.0,VALID,95.532,VALID,0.002,VALID,18.317,INVALID,360.0,VALID,0.0,
2018-08-12, 00:55:06,VALID,918.33,VALID,0.0,VALID,95.97,VALID,0.01,VALID,18.319,INVALID,360.0,VALID,0.0,
2018-08-12, 00:56:06,VALID,918.319,VALID,0.0,VALID,95.552,VALID,0.011,VALID,18.221,INVALID,360.0,VALID,0.0,
2018-08-12, 00:57:06,VALID,918.317,VALID,0.0,VALID,95.044,VALID,0.008,VALID,18.12,INVALID,360.0,VALID,0.0,
2018-08-12, 00:58:06,VALID,918.307,VALID,0.0,VALID,94.702,VALID,0.007,VALID,18.058,INVALID,360.0,VALID,0.0,
2018-08-12, 00:59:06,VALID,918.294,VALID,0.0,VALID,95.045,VALID,-0.003,VALID,18.049,INVALID,360.0,VALID,0.0,
2018-08-12, 01:00:06,VALID,918.296,VALID,0.0,VALID,95.862,VALID,0.012,VALID,18.097,INVALID,360.0,VALID,0.0,
2018-08-12, 01:01:06,VALID,918.282,VALID,0.0,VALID,95.962,VALID,0.01,VALID,18.09,INVALID,360.0,VALID,0.0,
2018-08-12, 01:02:06,VALID,918.247,VALID,0.0,VALID,96.182,VALID,0.003,VALID,18.107,INVALID,360.0,VALID,0.0,
2018-08-12, 01:03:06,VALID,918.227,VALID,0.0,VALID,96.042,VALID,-0.008,VALID,18.048,INVALID,360.0,VALID,0.0,
2018-08-12, 01:04:06,VALID,918.195,VALID,0.0,VALID,95.583,VALID,-0.002,VALID,17.976,INVALID,360.0,VALID,0.0,
2018-08-12, 01:05:06,VALID,918.174,VALID,0.0,VALID,95.268,VALID,-0.004,VALID,17.929,INVALID,360.0,VALID,0.0,
2018-08-12, 01:06:06,VALID,918.151,VALID,0.0,VALID,94.984,VALID,-0.006,VALID,17.874,INVALID,360.0,VALID,0.0,
2018-08-12, 01:07:06,VALID,918.128,VALID,0.0,VALID,94.897,VALID,-0.004,VALID,17.809,INVALID,360.0,VALID,0.0,
2018-08-12, 01:08:06,VALID,918.118,VALID,0.0,VALID,95.188,VALID,-0.004,VALID,17.795,INVALID,360.0,VALID,0.0,
2018-08-12, 01:09:06,VALID,918.096,VALID,0.0,VALID,96.576,VALID,0.001,VALID,17.923,INVALID,360.0,VALID,0.0,
2018-08-12, 01:10:06,VALID,918.084,VALID,0.0,VALID,97.512,VALID,-0.015,VALID,18.053,INVALID,360.0,VALID,0.0,
2018-08-12, 01:11:06,VALID,918.08,VALID,0.0,VALID,97.65,VALID,-0.001,VALID,18.03,INVALID,360.0,VALID,0.0,
2018-08-12, 01:12:06,VALID,918.085,VALID,0.0,VALID,97.041,VALID,-0.014,VALID,17.871,INVALID,360.0,VALID,0.0,
2018-08-12, 01:13:06,VALID,918.08,VALID,0.0,VALID,97.147,VALID,0.007,VALID,17.891,INVALID,360.0,VALID,0.0,
2018-08-12, 01:14:06,VALID,918.066,VALID,0.0,VALID,97.717,VALID,0.0,VALID,18.045,INVALID,360.0,VALID,0.0,
2018-08-12, 01:15:06,VALID,918.049,VALID,0.0,VALID,97.87,VALID,0.002,VALID,18.101,INVALID,360.0,VALID,0.0,
2018-08-12, 01:16:06,VALID,918.045,VALID,0.0,VALID,97.854,VALID,-0.007,VALID,18.088,INVALID,360.0,VALID,0.0,
2018-08-12, 01:17:06,VALID,918.035,VALID,0.0,VALID,97.458,VALID,-0.017,VALID,18.005,INVALID,360.0,VALID,0.0,
2018-08-12, 01:18:06,VALID,918.021,VALID,0.0,VALID,97.085,VALID,-0.0,VALID,17.967,INVALID,360.0,VALID,0.0,
2018-08-12, 01:19:06,VALID,918.014,VALID,0.0,VALID,97.447,VALID,-0.023,VALID,18.109,INVALID,360.0,VALID,0.0,
2018-08-12, 01:20:06,VALID,917.996,VALID,0.0,VALID,97.713,VALID,-0.001,VALID,18.181,INVALID,360.0,VALID,0.0,
2018-08-12, 01:21:06,VALID,917.988,VALID,0.0,VALID,97.083,VALID,-0.014,VALID,18.047,INVALID,360.0,VALID,0.0,
2018-08-12, 01:22:06,VALID,917.993,VALID,0.0,VALID,96.508,VALID,-0.023,VALID,17.948,INVALID,360.0,VALID,0.0,
2018-08-12, 01:23:06,VALID,918.01,VALID,0.0,VALID,97.097,VALID,-0.029,VALID,18.037,INVALID,360.0,VALID,0.0,
2018-08-12, 01:24:06,VALID,918.036,VALID,0.0,VALID,97.375,VALID,-0.035,VALID,18.065,INVALID,360.0,VALID,0.0,
2018-08-12, 01:25:06,VALID,918.048,VALID,0.0,VALID,97.614,VALID,-0.025,VALID,18.081,INVALID,360.0,VALID,0.0,
2018-08-12, 01:26:06,VALID,918.049,VALID,0.0,VALID,97.618,VALID,-0.025,VALID,18.051,INVALID,360.0,VALID,0.0,
2018-08-12, 01:27:06,VALID,918.044,VALID,0.0,VALID,97.631,VALID,-0.037,VALID,18.052,INVALID,360.0,VALID,0.0,
2018-08-12, 01:28:06,VALID,918.051,VALID,0.0,VALID,97.702,VALID,-0.032,VALID,18.071,INVALID,360.0,VALID,0.0,
2018-08-12, 01:29:06,VALID,918.042,VALID,0.0,VALID,97.637,VALID,-0.027,VALID,18.057,INVALID,360.0,VALID,0.0,
2018-08-12, 01:30:06,VALID,918.041,VALID,0.0,VALID,97.66,VALID,-0.022,VALID,18.064,INVALID,360.0,VALID,0.0,
2018-08-12, 01:31:06,VALID,918.042,VALID,0.0,VALID,97.913,VALID,-0.015,VALID,18.147,INVALID,360.0,VALID,0.0,
2018-08-12, 01:32:06,VALID,918.053,VALID,0.0,VALID,97.901,VALID,-0.02,VALID,18.152,INVALID,360.0,VALID,0.0,
2018-08-12, 01:33:06,VALID,918.038,VALID,0.0,VALID,97.892,VALID,-0.022,VALID,18.166,INVALID,360.0,VALID,0.0,
2018-08-12, 01:34:06,VALID,918.018,VALID,0.0,VALID,97.569,VALID,-0.04,VALID,18.078,INVALID,360.0,VALID,0.0,
2018-08-12, 01:35:06,VALID,918.014,VALID,0.0,VALID,97.281,VALID,-0.038,VALID,18.041,INVALID,360.0,VALID,0.0,
2018-08-12, 01:36:06,VALID,918.023,VALID,0.0,VALID,97.745,VALID,-0.024,VALID,18.188,INVALID,360.0,VALID,0.0,
2018-08-12, 01:37:06,VALID,918.028,VALID,0.0,VALID,97.86,VALID,0.014,VALID,18.258,INVALID,360.0,VALID,0.0,
2018-08-12, 01:38:06,VALID,918.044,VALID,0.0,VALID,97.819,VALID,0.036,VALID,18.257,INVALID,360.0,VALID,0.0,
2018-08-12, 01:39:06,VALID,918.04,VALID,0.0,VALID,97.534,VALID,0.011,VALID,18.185,INVALID,360.0,VALID,0.0,
2018-08-12, 01:40:06,VALID,918.034,VALID,0.0,VALID,97.524,VALID,-0.007,VALID,18.179,INVALID,360.0,VALID,0.0,
2018-08-12, 01:41:06,VALID,918.023,VALID,0.0,VALID,97.311,VALID,0.01,VALID,18.116,INVALID,360.0,VALID,0.0,
2018-08-12, 01:42:06,VALID,918.022,VALID,0.0,VALID,97.395,VALID,0.022,VALID,18.112,INVALID,360.0,VALID,0.0,
2018-08-12, 01:43:06,VALID,918.016,VALID,0.0,VALID,97.271,VALID,0.03,VALID,18.045,INVALID,360.0,VALID,0.0,
2018-08-12, 01:44:06,VALID,918.013,VALID,0.0,VALID,97.266,VALID,0.029,VALID,18.018,INVALID,360.0,VALID,0.0,
2018-08-12, 01:45:06,VALID,918.006,VALID,0.0,VALID,97.195,VALID,0.025,VALID,17.963,INVALID,360.0,VALID,0.0,
2018-08-12, 01:46:06,VALID,917.981,VALID,0.0,VALID,97.385,VALID,0.036,VALID,17.958,INVALID,360.0,VALID,0.0,
2018-08-12, 01:47:06,VALID,917.957,VALID,0.0,VALID,97.724,VALID,0.03,VALID,18.031,INVALID,360.0,VALID,0.0,
2018-08-12, 01:48:06,VALID,917.947,VALID,0.0,VALID,97.886,VALID,0.02,VALID,18.09,INVALID,360.0,VALID,0.0,
2018-08-12, 01:49:06,VALID,917.914,VALID,0.0,VALID,97.987,VALID,0.028,VALID,18.136,INVALID,360.0,VALID,0.0,
2018-08-12, 01:50:06,VALID,917.884,VALID,0.0,VALID,97.937,VALID,0.037,VALID,18.14,INVALID,360.0,VALID,0.0,
2018-08-12, 01:51:06,VALID,917.854,VALID,0.0,VALID,97.935,VALID,-0.001,VALID,18.144,INVALID,360.0,VALID,0.0,
2018-08-12, 01:52:06,VALID,917.84,VALID,0.0,VALID,97.805,VALID,-0.001,VALID,18.098,INVALID,360.0,VALID,0.0,
2018-08-12, 01:53:06,VALID,917.83,VALID,0.0,VALID,97.741,VALID,0.001,VALID,18.079,INVALID,360.0,VALID,0.0,
2018-08-12, 01:54:06,VALID,917.838,VALID,0.0,VALID,97.694,VALID,-0.007,VALID,18.057,INVALID,360.0,VALID,0.0,
2018-08-12, 01:55:06,VALID,917.853,VALID,0.0,VALID,97.714,VALID,0.006,VALID,18.057,INVALID,360.0,VALID,0.0,
2018-08-12, 01:56:06,VALID,917.853,VALID,0.0,VALID,97.81,VALID,-0.018,VALID,18.089,INVALID,360.0,VALID,0.0,
2018-08-12, 01:57:06,VALID,917.851,VALID,0.0,VALID,97.257,VALID,0.003,VALID,17.952,INVALID,360.0,VALID,0.0,
2018-08-12, 01:58:06,VALID,917.854,VALID,0.0,VALID,96.066,VALID,-0.008,VALID,17.77,INVALID,360.0,VALID,0.0,
2018-08-12, 01:59:06,VALID,917.832,VALID,0.0,VALID,95.983,VALID,-0.008,VALID,17.705,INVALID,360.0,VALID,0.0,
2018-08-12, 02:00:06,VALID,917.816,VALID,0.0,VALID,96.202,VALID,-0.013,VALID,17.657,INVALID,360.0,VALID,0.0,
2018-08-12, 02:01:06,VALID,917.793,VALID,0.0,VALID,96.467,VALID,-0.015,VALID,17.621,INVALID,360.0,VALID,0.0,
2018-08-12, 02:02:06,VALID,917.776,VALID,0.0,VALID,96.218,VALID,-0.036,VALID,17.535,INVALID,360.0,VALID,0.0,
2018-08-12, 02:03:06,VALID,917.781,VALID,0.0,VALID,95.945,VALID,-0.022,VALID,17.472,INVALID,360.0,VALID,0.0,
2018-08-12, 02:04:06,VALID,917.774,VALID,0.0,VALID,96.757,VALID,-0.009,VALID,17.528,INVALID,360.0,VALID,0.0,
2018-08-12, 02:05:06,VALID,917.785,VALID,0.0,VALID,96.953,VALID,-0.002,VALID,17.515,INVALID,360.0,VALID,0.0,
2018-08-12, 02:06:06,VALID,917.758,VALID,0.0,VALID,96.967,VALID,0.006,VALID,17.534,INVALID,360.0,VALID,0.0,
2018-08-12, 02:07:06,VALID,917.744,VALID,0.0,VALID,97.433,VALID,0.044,VALID,17.657,INVALID,360.0,VALID,0.0,
2018-08-12, 02:08:06,VALID,917.734,VALID,0.0,VALID,97.852,VALID,0.044,VALID,17.8,INVALID,360.0,VALID,0.0,
2018-08-12, 02:09:06,VALID,917.725,VALID,0.0,VALID,98.172,VALID,0.021,VALID,17.961,INVALID,360.0,VALID,0.0,
2018-08-12, 02:10:06,VALID,917.716,VALID,0.0,VALID,98.009,VALID,0.03,VALID,17.905,INVALID,360.0,VALID,0.0,
2018-08-12, 02:11:06,VALID,917.704,VALID,0.0,VALID,97.498,VALID,0.039,VALID,17.738,INVALID,360.0,VALID,0.0,
2018-08-12, 02:12:06,VALID,917.682,VALID,0.0,VALID,97.1,VALID,0.024,VALID,17.618,INVALID,360.0,VALID,0.0,
2018-08-12, 02:13:06,VALID,917.682,VALID,0.0,VALID,97.209,VALID,0.028,VALID,17.648,INVALID,360.0,VALID,0.0,
2018-08-12, 02:14:06,VALID,917.689,VALID,0.0,VALID,97.707,VALID,0.02,VALID,17.752,INVALID,360.0,VALID,0.0,
2018-08-12, 02:15:06,VALID,917.676,VALID,0.0,VALID,97.648,VALID,0.029,VALID,17.708,INVALID,360.0,VALID,0.0,
2018-08-12, 02:16:06,VALID,917.667,VALID,0.0,VALID,97.567,VALID,0.024,VALID,17.675,INVALID,360.0,VALID,0.0,
2018-08-12, 02:17:06,VALID,917.656,VALID,0.0,VALID,97.863,VALID,0.036,VALID,17.792,INVALID,360.0,VALID,0.0,
2018-08-12, 02:18:06,VALID,917.661,VALID,0.0,VALID,97.986,VALID,0.039,VALID,17.892,INVALID,360.0,VALID,0.0,
2018-08-12, 02:19:06,VALID,917.638,VALID,0.0,VALID,98.228,VALID,0.027,VALID,18.081,INVALID,360.0,VALID,0.0,
2018-08-12, 02:20:06,VALID,917.614,VALID,0.0,VALID,98.445,VALID,0.012,VALID,18.327,INVALID,360.0,VALID,0.0,
2018-08-12, 02:21:06,VALID,917.618,VALID,0.0,VALID,98.552,VALID,-0.001,VALID,18.48,INVALID,360.0,VALID,0.0,
2018-08-12, 02:22:06,VALID,917.598,VALID,0.0,VALID,98.076,VALID,-0.019,VALID,18.351,INVALID,360.0,VALID,0.0,
2018-08-12, 02:23:06,VALID,917.583,VALID,0.0,VALID,97.711,VALID,-0.004,VALID,18.267,INVALID,360.0,VALID,0.0,
2018-08-12, 02:24:06,VALID,917.586,VALID,0.0,VALID,97.466,VALID,-0.014,VALID,18.238,INVALID,360.0,VALID,0.0,
2018-08-12, 02:25:06,VALID,917.586,VALID,0.0,VALID,97.656,VALID,-0.002,VALID,18.347,INVALID,360.0,VALID,0.0,
2018-08-12, 02:26:06,VALID,917.575,VALID,0.0,VALID,97.434,VALID,0.002,VALID,18.288,INVALID,360.0,VALID,0.0,
2018-08-12, 02:27:06,VALID,917.577,VALID,0.0,VALID,96.889,VALID,-0.004,VALID,18.154,INVALID,360.0,VALID,0.0,
2018-08-12, 02:28:06,VALID,917.585,VALID,0.0,VALID,96.98,VALID,0.01,VALID,18.142,INVALID,360.0,VALID,0.0,
2018-08-12, 02:29:06,VALID,917.584,VALID,0.0,VALID,97.299,VALID,0.013,VALID,18.186,INVALID,360.0,VALID,0.0,
2018-08-12, 02:30:06,VALID,917.571,VALID,0.0,VALID,97.298,VALID,-0.001,VALID,18.187,INVALID,360.0,VALID,0.0,
2018-08-12, 02:31:06,VALID,917.549,VALID,0.0,VALID,97.385,VALID,0.005,VALID,18.207,INVALID,360.0,VALID,0.0,
2018-08-12, 02:32:06,VALID,917.538,VALID,0.0,VALID,97.637,VALID,-0.003,VALID,18.269,INVALID,360.0,VALID,0.0,
2018-08-12, 02:33:06,VALID,917.519,VALID,0.0,VALID,97.796,VALID,0.001,VALID,18.334,INVALID,360.0,VALID,0.0,
2018-08-12, 02:34:06,VALID,917.514,VALID,0.0,VALID,97.926,VALID,-0.01,VALID,18.404,INVALID,360.0,VALID,0.0,
2018-08-12, 02:35:06,VALID,917.511,VALID,0.0,VALID,98.039,VALID,-0.006,VALID,18.457,INVALID,360.0,VALID,0.0,
2018-08-12, 02:36:06,VALID,917.524,VALID,0.0,VALID,98.013,VALID,-0.0,VALID,18.49,INVALID,360.0,VALID,0.0,
2018-08-12, 02:37:06,VALID,917.518,VALID,0.0,VALID,97.526,VALID,0.022,VALID,18.359,INVALID,360.0,VALID,0.0,
2018-08-12, 02:38:06,VALID,917.514,VALID,0.0,VALID,96.421,VALID,0.019,VALID,18.172,INVALID,360.0,VALID,0.0,
2018-08-12, 02:39:06,VALID,917.511,VALID,0.0,VALID,96.92,VALID,0.005,VALID,18.25,INVALID,360.0,VALID,0.0,
2018-08-12, 02:40:06,VALID,917.53,VALID,0.0,VALID,97.483,VALID,0.0,VALID,18.356,INVALID,360.0,VALID,0.0,
2018-08-12, 02:41:06,VALID,917.532,VALID,0.0,VALID,97.408,VALID,0.022,VALID,18.339,INVALID,360.0,VALID,0.0,
2018-08-12, 02:42:06,VALID,917.55,VALID,0.0,VALID,97.132,VALID,0.034,VALID,18.296,INVALID,360.0,VALID,0.0,
2018-08-12, 02:43:06,VALID,917.541,VALID,0.0,VALID,96.984,VALID,0.028,VALID,18.293,INVALID,360.0,VALID,0.0,
2018-08-12, 02:44:06,VALID,917.529,VALID,0.0,VALID,96.808,VALID,0.023,VALID,18.298,INVALID,360.0,VALID,0.0,
2018-08-12, 02:45:06,VALID,917.519,VALID,0.0,VALID,97.012,VALID,0.037,VALID,18.364,INVALID,360.0,VALID,0.0,
2018-08-12, 02:46:06,VALID,917.509,VALID,0.0,VALID,97.166,VALID,0.033,VALID,18.424,INVALID,360.0,VALID,0.0,
2018-08-12, 02:47:06,VALID,917.508,VALID,0.0,VALID,97.165,VALID,0.009,VALID,18.457,INVALID,360.0,VALID,0.0,
2018-08-12, 02:48:06,VALID,917.504,VALID,0.0,VALID,97.191,VALID,0.008,VALID,18.489,INVALID,360.0,VALID,0.0,
2018-08-12, 02:49:06,VALID,917.501,VALID,0.0,VALID,96.868,VALID,0.024,VALID,18.449,INVALID,360.0,VALID,0.0,
2018-08-12, 02:50:06,VALID,917.493,VALID,0.0,VALID,96.212,VALID,0.023,VALID,18.357,INVALID,360.0,VALID,0.0,
2018-08-12, 02:51:06,VALID,917.464,VALID,0.0,VALID,96.283,VALID,0.008,VALID,18.353,INVALID,360.0,VALID,0.0,
2018-08-12, 02:52:06,VALID,917.443,VALID,0.0,VALID,96.36,VALID,0.016,VALID,18.352,INVALID,360.0,VALID,0.0,
2018-08-12, 02:53:06,VALID,917.432,VALID,0.0,VALID,96.539,VALID,-0.002,VALID,18.375,INVALID,360.0,VALID,0.0,
2018-08-12, 02:54:06,VALID,917.438,VALID,0.0,VALID,96.075,VALID,0.001,VALID,18.31,INVALID,360.0,VALID,0.0,
2018-08-12, 02:55:06,VALID,917.432,VALID,0.0,VALID,95.848,VALID,-0.006,VALID,18.326,INVALID,360.0,VALID,0.0,
2018-08-12, 02:56:06,VALID,917.456,VALID,0.0,VALID,96.153,VALID,-0.006,VALID,18.379,INVALID,360.0,VALID,0.0,
2018-08-12, 02:57:06,VALID,917.477,VALID,0.0,VALID,95.442,VALID,-0.002,VALID,18.367,INVALID,360.0,VALID,0.0,
2018-08-12, 02:58:06,VALID,917.478,VALID,0.0,VALID,95.556,VALID,0.011,VALID,18.425,INVALID,360.0,VALID,0.0,
2018-08-12, 02:59:06,VALID,917.469,VALID,0.0,VALID,95.982,VALID,0.022,VALID,18.534,INVALID,360.0,VALID,0.0,
2018-08-12, 03:00:06,VALID,917.467,VALID,0.0,VALID,96.268,VALID,0.004,VALID,18.572,INVALID,360.0,VALID,0.0,
2018-08-12, 03:01:06,VALID,917.456,VALID,0.0,VALID,95.845,VALID,0.008,VALID,18.561,INVALID,360.0,VALID,0.0,
2018-08-12, 03:02:06,VALID,917.443,VALID,0.0,VALID,95.998,VALID,0.015,VALID,18.558,INVALID,360.0,VALID,0.0,
2018-08-12, 03:03:06,VALID,917.415,VALID,0.0,VALID,95.363,VALID,0.007,VALID,18.478,INVALID,360.0,VALID,0.0,
2018-08-12, 03:04:06,VALID,917.401,VALID,0.0,VALID,95.537,VALID,0.013,VALID,18.441,INVALID,360.0,VALID,0.0,
2018-08-12, 03:05:06,VALID,917.393,VALID,0.0,VALID,95.88,VALID,0.009,VALID,18.467,INVALID,360.0,VALID,0.0,
2018-08-12, 03:06:06,VALID,917.372,VALID,0.0,VALID,96.386,VALID,0.001,VALID,18.511,INVALID,360.0,VALID,0.0,
2018-08-12, 03:07:06,VALID,917.364,VALID,0.0,VALID,95.379,VALID,0.012,VALID,18.413,INVALID,360.0,VALID,0.0,
2018-08-12, 03:08:06,VALID,917.354,VALID,0.0,VALID,95.036,VALID,0.026,VALID,18.376,INVALID,360.0,VALID,0.0,
2018-08-12, 03:09:06,VALID,917.344,VALID,0.0,VALID,96.109,VALID,0.017,VALID,18.439,INVALID,360.0,VALID,0.0,
2018-08-12, 03:10:06,VALID,917.356,VALID,0.0,VALID,96.277,VALID,-0.007,VALID,18.399,INVALID,360.0,VALID,0.0,
2018-08-12, 03:11:06,VALID,917.357,VALID,0.0,VALID,96.08,VALID,0.024,VALID,18.314,INVALID,360.0,VALID,0.0,
2018-08-12, 03:12:06,VALID,917.359,VALID,0.0,VALID,95.713,VALID,0.013,VALID,18.192,INVALID,360.0,VALID,0.0,
2018-08-12, 03:13:06,VALID,917.355,VALID,0.0,VALID,95.797,VALID,-0.001,VALID,18.149,INVALID,360.0,VALID,0.0,
2018-08-12, 03:14:06,VALID,917.359,VALID,0.0,VALID,95.773,VALID,0.011,VALID,18.117,INVALID,360.0,VALID,0.0,
2018-08-12, 03:15:06,VALID,917.354,VALID,0.0,VALID,96.19,VALID,0.027,VALID,18.184,INVALID,360.0,VALID,0.0,
2018-08-12, 03:16:06,VALID,917.328,VALID,0.0,VALID,96.655,VALID,0.015,VALID,18.3,INVALID,360.0,VALID,0.0,
2018-08-12, 03:17:06,VALID,917.323,VALID,0.0,VALID,97.148,VALID,0.017,VALID,18.414,INVALID,360.0,VALID,0.0,
2018-08-12, 03:18:06,VALID,917.318,VALID,0.0,VALID,97.043,VALID,0.027,VALID,18.465,INVALID,360.0,VALID,0.0,
2018-08-12, 03:19:06,VALID,917.333,VALID,0.0,VALID,96.635,VALID,0.022,VALID,18.466,INVALID,360.0,VALID,0.0,
2018-08-12, 03:20:06,VALID,917.342,VALID,0.0,VALID,95.899,VALID,0.034,VALID,18.399,INVALID,360.0,VALID,0.0,
2018-08-12, 03:21:06,VALID,917.348,VALID,0.0,VALID,95.575,VALID,0.024,VALID,18.338,INVALID,360.0,VALID,0.0,
2018-08-12, 03:22:06,VALID,917.338,VALID,0.0,VALID,95.863,VALID,0.015,VALID,18.312,INVALID,360.0,VALID,0.0,
2018-08-12, 03:23:06,VALID,917.333,VALID,0.0,VALID,95.843,VALID,0.014,VALID,18.27,INVALID,360.0,VALID,0.0,
2018-08-12, 03:24:06,VALID,917.346,VALID,0.0,VALID,96.581,VALID,0.013,VALID,18.306,INVALID,360.0,VALID,0.0,
2018-08-12, 03:25:06,VALID,917.341,VALID,0.0,VALID,96.887,VALID,0.033,VALID,18.314,INVALID,360.0,VALID,0.0,
2018-08-12, 03:26:06,VALID,917.344,VALID,0.0,VALID,96.914,VALID,0.041,VALID,18.314,INVALID,360.0,VALID,0.0,
2018-08-12, 03:27:06,VALID,917.338,VALID,0.0,VALID,96.951,VALID,0.048,VALID,18.311,INVALID,360.0,VALID,0.0,
2018-08-12, 03:28:06,VALID,917.323,VALID,0.0,VALID,96.861,VALID,0.014,VALID,18.272,INVALID,360.0,VALID,0.0,
2018-08-12, 03:29:06,VALID,917.326,VALID,0.0,VALID,97.214,VALID,-0.003,VALID,18.317,INVALID,360.0,VALID,0.0,
2018-08-12, 03:30:06,VALID,917.325,VALID,0.0,VALID,97.294,VALID,0.018,VALID,18.31,INVALID,360.0,VALID,0.0,
2018-08-12, 03:31:06,VALID,917.315,VALID,0.0,VALID,97.199,VALID,0.028,VALID,18.27,INVALID,360.0,VALID,0.0,
2018-08-12, 03:32:06,VALID,917.306,VALID,0.0,VALID,97.126,VALID,0.028,VALID,18.248,INVALID,360.0,VALID,0.0,
2018-08-12, 03:33:06,VALID,917.264,VALID,0.0,VALID,97.145,VALID,0.024,VALID,18.246,INVALID,360.0,VALID,0.0,
2018-08-12, 03:34:06,VALID,917.224,VALID,0.0,VALID,97.193,VALID,0.046,VALID,18.247,INVALID,360.0,VALID,0.0,
2018-08-12, 03:35:06,VALID,917.214,VALID,0.0,VALID,97.139,VALID,0.023,VALID,18.226,INVALID,360.0,VALID,0.0,
2018-08-12, 03:36:06,VALID,917.209,VALID,0.0,VALID,97.135,VALID,0.001,VALID,18.221,INVALID,360.0,VALID,0.0,
2018-08-12, 03:37:06,VALID,917.217,VALID,0.0,VALID,97.119,VALID,-0.014,VALID,18.223,INVALID,360.0,VALID,0.0,